Regional Weather Roundup
Issued by NWS

Home | Current Version | Previous Version | Text Only | Print | Product List | Glossary On
Versions: 1 2 3 4 5 6 7 8 9 10 11 12 13 14 15 16 17 18 19 20 21 22 23 24 25 26 27 28 29 30 31 32 33 34 35 36 37 38 39 40 41 42 43 44 45 46 47 48 49 50
000
ASUS43 KDMX 190807
RWRIA

WEATHER ROUNDUP FOR IOWA
NATIONAL WEATHER SERVICE DES MOINES IA
300 AM CDT SUN APR 19 2015

NOTE: "FAIR" INDICATES FEW OR NO CLOUDS BELOW 12,000 FEET WITH NO
SIGNIFICANT WEATHER AND/OR OBSTRUCTIONS TO VISIBILITY.

* - THESE STATIONS ARE NOT NWS STATIONS...THUS NOT UNDER NWS
QUALITY CONTROL.  THEY ALSO DO NOT REPORT WEATHER SUCH
AS PRECIPITATION OR FOG.

IAZ001>003-012>014-020>022-031>034-043>046-190900-
   NORTHWEST IOWA

CITY           SKY/WX    TMP DP  RH WIND       PRES   REMARKS
CARROLL *      LGT RAIN  55  55 100 CALM      29.78S VSB 1/2
CHEROKEE *     CLOUDY    54  54 100 S3        29.76F
DENISON *      CLOUDY    55  55 100 SE5       29.75F FOG
LE MARS *      MOCLDY    55  55 100 S5        29.76F
ORANGE CITY *  FOG      N/A N/A N/A S3        29.75F VSB 1
SHELDON *      CLOUDY    54  54 100 S9        29.74F FOG
SIOUX CITY     CLOUDY    55  52  89 SE6       29.75F
SPENCER        FOG       54  52  93 S3        29.76F VSB 1/2
STORM LAKE *   CLOUDY    54  54 100 S3        29.78F FOG
$$

IAZ055>058-069>071-079>083-090>094-190900-
   SOUTHWEST IOWA

CITY           SKY/WX    TMP DP  RH WIND       PRES   REMARKS
ATLANTIC *     FOG       55  55 100 CALM      29.78F VSB 1/4
AUDUBON *      MOCLDY    57  54  88 CALM      29.79F
CLARINDA *     FOG       52  52 100 CALM      29.78F VSB 0
COUNCIL BLFS * FOG       55  55 100 S5        29.77F VSB 0
CRESTON *      CLOUDY    57  57 100 S8        29.78F FOG
HARLAN  *      FOG       54  54 100 CALM      29.81F VSB 1/4
LAMONI         LGT RAIN  59  58  96 S3        29.77F FOG
RED OAK *      CLOUDY    55  55 100 CALM      29.77F
SHENANDOAH *   FOG       57  57 100 CALM      29.77F VSB 1/4
$$

IAZ047>049-059>061-072>074-084-190900-
   CENTRAL IOWA

CITY           SKY/WX    TMP DP  RH WIND       PRES   REMARKS
AMES           CLOUDY    57  55  93 SE6       29.78F
ANKENY *       CLOUDY    57  57 100 S5        29.78F
CHARITON *     CLOUDY    57  55  94 S3        29.78F
DES MOINES     CLOUDY    58  56  93 S3        29.78F
GRINNELL*      LGT RAIN  57  55  94 E6        29.81S
KNOXVILLE *    CLOUDY    57  55  94 CALM      29.77F
MARSHALLTOWN   CLOUDY    56  55  97 E5        29.79F FOG
PELLA *        CLOUDY    57  57 100 E5        29.81S
PERRY *        CLOUDY    57  57 100 S7        29.79S FOG
$$

IAZ004>006-015-016-023>025-035-036-190900-
   NORTH CENTRAL IOWA

CITY           SKY/WX    TMP DP  RH WIND       PRES   REMARKS
ALGONA *       LGT RAIN  55  55 100 S16       29.77F
CLARION *      CLOUDY    57  57 100 SE15G21   29.78F
ESTHERVILLE    CLOUDY    54  54 100 S6        29.76F
FORT DODGE *   CLOUDY    55  54  94 CALM      29.78F
MASON CITY     LGT RAIN  54  32  43 SE14      29.81F
FOREST CITY *  DRIZZLE   54  52  94 SE13      29.78F
IOWA FALLS *   CLOUDY    55  54  94 SE13      29.80F
$$

IAZ007>011-017>019-026>030-037>042-050>054-066-190900-
   NORTHEAST IOWA

CITY           SKY/WX    TMP DP  RH WIND       PRES   REMARKS
CEDAR RAPIDS   CLOUDY    53  44  71 SE10      29.81F
CHARLES CITY * CLOUDY    54  48  82 S10       29.84R
CLINTON *      CLOUDY    54  37  54 E14       29.87F
DECORAH *      CLOUDY    54  39  58 E14       29.82F
DUBUQUE        CLOUDY    53  34  48 E13       29.85F
MONTICELLO *   CLEAR     55  39  54 E13       29.83F
OELWEIN *      CLOUDY    54  43  66 E14       29.82F
WATERLOO       TSTM      55  48  76 S14G20    29.85R
$$

IAZ064-065-067-068-078-190900-
   EAST CENTRAL IOWA

CITY           SKY/WX    TMP DP  RH WIND       PRES   REMARKS
DAVENPORT      MOCLDY    52  36  54 E9        29.84F
IOWA CITY      CLOUDY    55  48  77 E8        29.83F
MT. PLEASANT * CLOUDY    59  57  94 E8        29.79F
MUSCATINE *    MOCLDY    59  46  63 E8        29.82F
QUAD CITIES    MOCLDY    53  37  54 E10       29.83F
$$

IAZ062-063-075>077-085>089-095>099-190900-
   SOUTHEAST IOWA

CITY           SKY/WX    TMP DP  RH WIND       PRES   REMARKS
BURLINGTON     MOCLDY    59  58  96 NE6       29.80F
FAIRFIELD *    CLOUDY    59  55  88 E6        29.78F
FORT MADISON * CLEAR     57  57 100 E5        29.80F FOG
KEOKUK *       CLEAR     57  57 100 CALM      29.79F FOG
OSKALOOSA *    CLOUDY    57  55  94 CALM      29.79F
CENTERVILLE *  PTCLDY    55  55 100 CALM      29.80F
OTTUMWA        CLOUDY    57  56  96 E3        29.77F
WASHINGTON *   CLOUDY    59  59 100 SE6       29.79F
$$

ABBREVIATIONS USED IN REMARKS
   TC - TEMPERATURES IN CELSIUS
  WCI - WIND CHILL INDEX
   HX - HEAT INDEX
  VSB - VISIBILITY
$$




USA.gov is the U.S. government's official web portal to all federal, state and local government web resources and services.